Flag for France Weather past 2 weeks in Douai, France

Now
39 °F

Light rain. Partly sunny.


Feels Like: 29 °F
Forecast: 30 / 37 °F
Wind: 21 mph from Northwest

Location: Lille Airport

Current Time: Feb 1, 2015 at 3:10:18 PM

Latest Report: Feb 1, 2015 at 2:30 PM


Visibility: 4 mi

Pressure: 29.33 "Hg

Humidity: 93%

Dew point: 37 °F

Location of DouaiLocation

Historic Weather in Douai — Graph

°F

Douai temperature yesterday

Maximum temperature yesterday: 39 °F (at 12:00 PM)
Minimum temperature yesterday: 28 °F (at 7:30 AM)
Average temperature yesterday: 35 °F

Past Weeks' High & Low Weather Summary

 TemperatureHumidityPressure
High48 °F (Jan 26, 12:00 PM)100% (Jan 18, 10:00 AM)30.48 "Hg (Jan 18, 10:00 AM)
Low27 °F (Jan 23, 10:30 PM)61% (Jan 17, 3:00 PM)28.80 "Hg (Jan 29, 7:30 PM)
Average36 °F90%29.82 "Hg
* Reported Jan 17 1:00 PM — Feb 1 1:30 PM, Douai, Weather by CustomWeather, © 2014

Note: Actual official high and low records may vary slightly from our data, if they occured in-between our weather recording intervals... More about our weather records

Advertising

Douai weather history for previous 24 hours

 ConditionsComfort  
Time TempWeatherWind HumidityBarometerVisibility
1:30 PM
Feb 1
39 °FLight rain. Partly sunny.21 mph93%29.30 "Hg5 mi
1:00 PM39 °FPartly sunny.20 mph93%29.30 "HgN/A
12:30 PM39 °FPartly sunny.20 mph93%29.30 "Hg6 mi
12:09 PM39 °FPartly sunny.18 mph87%29.30 "Hg6 mi
12:00 PM37 °FPartly sunny.18 mph93%29.30 "Hg6 mi
11:30 AM37 °FSprinkles. Mostly cloudy.20 mph93%29.30 "Hg6 mi
11:00 AM37 °FSprinkles. Mostly cloudy.20 mph93%29.30 "Hg6 mi
10:30 AM37 °FSprinkles. Mostly cloudy.16 mph93%29.30 "HgN/A
10:00 AM36 °FMore clouds than sun.15 mph93%29.27 "HgN/A
9:30 AM36 °FLight rain. Partly sunny.15 mph93%29.30 "Hg5 mi
9:13 AM36 °FLight rain. Partly sunny.16 mph93%29.30 "Hg5 mi
8:30 AM36 °FLight rain. Mostly cloudy.16 mph87%29.27 "Hg5 mi
8:00 AM37 °FOvercast.16 mph81%29.27 "HgN/A
7:30 AM37 °FOvercast.16 mph81%29.27 "HgN/A
7:00 AM37 °FOvercast.14 mph81%29.27 "HgN/A
6:30 AM37 °FOvercast.16 mph81%29.27 "HgN/A
6:00 AM37 °FOvercast.15 mph81%29.24 "HgN/A
5:30 AM37 °FOvercast.14 mph81%29.24 "HgN/A
5:00 AM37 °FOvercast.15 mph81%29.24 "HgN/A
4:30 AM37 °FOvercast.15 mph81%29.24 "HgN/A
4:00 AM37 °FOvercast.16 mph81%29.21 "HgN/A
3:30 AM37 °FOvercast.16 mph87%29.21 "HgN/A
3:00 AM37 °FOvercast.15 mph87%29.21 "HgN/A
2:30 AM37 °FDrizzle. Overcast.18 mph87%29.21 "HgN/A
2:00 AM37 °FLight rain. Mostly cloudy.15 mph93%29.18 "HgN/A
1:30 AM37 °FLight rain. Low clouds.15 mph93%29.18 "Hg5 mi
1:00 AM37 °FLight rain. Passing clouds.16 mph100%29.18 "Hg4 mi
12:30 AM36 °FLight rain. Passing clouds.8 mph93%29.18 "Hg4 mi
12:00 AM36 °FLight rain. Passing clouds.10 mph93%29.18 "Hg4 mi
11:30 PM
Jan 31
36 °FPassing clouds.10 mph100%29.18 "Hg4 mi
11:00 PM36 °FPassing clouds.9 mph93%29.15 "Hg4 mi
10:30 PM36 °FPassing clouds.6 mph93%29.15 "Hg4 mi
10:00 PM36 °FPassing clouds.7 mph93%29.15 "HgN/A
9:30 PM36 °FPassing clouds.9 mph100%29.15 "Hg6 mi
9:00 PM36 °FPassing clouds.6 mph93%29.15 "Hg6 mi
8:30 PM36 °FPassing clouds.3 mph93%29.12 "Hg6 mi
8:00 PM36 °FMostly cloudy.3 mph93%29.12 "Hg6 mi
7:30 PM36 °FMostly cloudy.6 mph93%29.12 "HgN/A
7:00 PM36 °FMostly cloudy.6 mph93%29.09 "HgN/A
6:30 PM36 °FLight rain. Mostly cloudy.8 mph93%29.09 "HgN/A
6:00 PM36 °FLight rain. Mostly cloudy.10 mph93%29.09 "Hg6 mi
5:30 PM37 °FLight rain. Partly sunny.6 mph93%29.06 "HgN/A
5:00 PM36 °FSprinkles. Mostly cloudy.5 mph100%29.06 "HgN/A
4:30 PM36 °FSprinkles. Partly sunny.8 mph93%29.03 "HgN/A
4:00 PM36 °FPartly sunny.8 mph93%29.03 "HgN/A
3:30 PM37 °FPartly sunny.6 mph93%29.03 "HgN/A
3:00 PM37 °FSprinkles. Partly sunny.7 mph93%29.00 "HgN/A
Weather by CustomWeather, © 2014

See weather overviewHow to use our weather pages